Regional Weather Roundup
Issued by NWS Cleveland, OH

Home | Current Version | Previous Version | Graphics & Text | Print | Product List | Glossary On
Versions: 1 2 3 4 5 6 7 8 9 10 11 12 13 14 15 16 17 18 19 20 21 22 23 24 25 26 27 28 29 30 31 32 33 34 35 36 37 38 39 40 41 42 43 44 45 46 47 48 49 50
000
ASUS41 KCLE 251910
RWRCLE
OHIO REGIONAL WEATHER ROUNDUP
NATIONAL WEATHER SERVICE WILMINGTON, OH
200 PM EST SUN JAN 25 2015

NOTE: "FAIR" INDICATES FEW OR NO CLOUDS BELOW 12,000 FEET WITH NO
SIGNIFICANT WEATHER AND/OR OBSTRUCTIONS TO VISIBILITY.

OHZ001>008-015>018-024>027-034-035-043-044-252000-
   NORTHWEST OHIO

CITY           SKY/WX    TMP DP  RH WIND       PRES   REMARKS
DEFIANCE       LGT SNOW  26  22  84 NE15G22   29.81S VSB 1   WCI  14
FINDLAY        LGT SNOW  26  22  84 NE21G31   29.78F FOG     WCI  12
TOLEDO EXPRESS LGT SNOW  23  19  85 NE18G25   29.84S FOG     WCI   9
TOLEDO EXEC    LGT SNOW  23  16  74 NE17G29   29.86S WCI   9
LIMA           LGT SNOW  30  26  85 NE16      29.73F VSB 1   WCI  19
$$

OHZ009>014-019>023-028>033-038-089-252000-
   NORTHEAST OHIO

CITY           SKY/WX    TMP DP  RH WIND       PRES   REMARKS
CLE-HOPKINS    CLOUDY    23  19  85 NE14      29.86F WCI  11
CLE-LAKEFRONT  CLOUDY    24  18  77 NE16G23   29.85F WCI  11
CUY CO. ARPT   CLOUDY    25  21  86 NE12      29.84F WCI  14
LORAIN-ELYRIA  LGT SNOW  22  17  81 NE15      29.84S WCI   9
ASHTABULA      CLOUDY    23  14  68 NE7       29.85F WCI  15
AKRON-CANTON   LGT SNOW  30  24  78 NE13      29.77F FOG     WCI  20
WOOSTER        LGT SNOW  29  26  89 NE12      29.78S FOG     WCI  19
MANSFIELD      LGT SNOW  28  25  88 E10       29.76S VSB 1   WCI  19
YOUNGSTOWN     CLOUDY    27  21  78 N9        29.80F WCI  18
$$

OHZ042-051>053-060>062-070>072-077>081-252000-
  SOUTHWEST OHIO

CITY           SKY/WX    TMP DP  RH WIND       PRES   REMARKS
CINC-COVINGTON LGT RAIN  40  34  79 SE7       29.67F
CINC-LUNKEN    LGT RAIN  41  34  76 SE5       29.70F
HAMILTON       LGT RAIN  40  37  89 VRB3      29.70F
DAYTON         LGT RAIN  38  36  92 E8        29.69S FOG
WRIGHT-PAT AFB LGT RAIN  38  36  94 E7        29.69F FOG
DAYTON GENERAL LGT RAIN  38  36  92 E7        29.67F FOG
WILMINGTON     CLOUDY    38  34  85 E5        29.69F
$$

OHZ036-037-039>041-045>050-054>059-063>069-073>076-082>088-252000-
  CENTRAL AND SOUTHEAST OHIO

CITY           SKY/WX    TMP DP  RH WIND       PRES   REMARKS
COLUMBUS       LGT SNOW  35  33  92 E6        29.72F VSB 1
OSU AIRPORT    LGT SNOW  34  32  92 E5        29.72F VSB 1   WCI  30
BOLTON FIELD   FOG       34  34 100 E7        29.72F VSB 1/2 WCI  28
RICKENBACK AFB DRIZZLE   36  35  94 E7        29.72F
NEWARK         LGT SNOW  35  33  92 E7        29.73F FOG     WCI  29
MARION         LGT SNOW  31  28  89 NE16      29.75F VSB 3/4 WCI  20
LANCASTER      CLOUDY    37  35  92 E8        29.72F FOG
ZANESVILLE     LGT RAIN  35  32  88 E6        29.75F FOG
NEW PHILLY     LGT RAIN  35  33  92 S3        29.78S FOG
$$



USA.gov is the U.S. government's official web portal to all federal, state and local government web resources and services.